TimeEET,TemperatureF,Dew PointF,Humidity,Sea Level PressureIn,VisibilityMPH,Wind Direction,Wind SpeedMPH,Gust SpeedMPH,PrecipitationIn,Events,Conditions,WindDirDegrees,DateUTC
12:20 AM,8.6,6.8,92,30.09,6.2,North,8.1,-,N/A,,Partly Cloudy,10,2013-01-17 22:20:00
12:50 AM,6.8,6.8,100,30.09,6.2,North,10.4,-,N/A,,Partly Cloudy,360,2013-01-17 22:50:00
1:20 AM,6.8,6.8,100,30.09,6.2,North,8.1,-,N/A,,Partly Cloudy,350,2013-01-17 23:20:00
1:50 AM,8.6,6.8,92,30.09,-9999.0,North,10.4,-,N/A,,Clear,10,2013-01-17 23:50:00
2:00 AM,8,6,90,30.10,6,North,11.2,,,,Clear,0,2013-01-18 00:00:00
2:20 AM,8.6,6.8,92,30.09,-9999.0,North,11.5,-,N/A,,Clear,10,2013-01-18 00:20:00
2:50 AM,8.6,6.8,92,30.06,-9999.0,NNE,12.7,-,N/A,,Clear,20,2013-01-18 00:50:00
3:20 AM,8.6,6.8,92,30.06,-9999.0,NNE,11.5,-,N/A,,Clear,20,2013-01-18 01:20:00
3:50 AM,8.6,6.8,92,30.06,-9999.0,NNE,12.7,-,N/A,,Clear,20,2013-01-18 01:50:00
4:20 AM,8.6,5.0,85,30.06,-9999.0,NNE,10.4,-,N/A,,Clear,30,2013-01-18 02:20:00
4:50 AM,6.8,5.0,92,30.06,6.2,NNE,9.2,-,N/A,,Scattered Clouds,20,2013-01-18 02:50:00
5:20 AM,5.0,3.2,92,30.06,6.2,North,6.9,-,N/A,,Scattered Clouds,10,2013-01-18 03:20:00
5:50 AM,3.2,3.2,100,30.06,6.2,North,6.9,-,N/A,,Scattered Clouds,10,2013-01-18 03:50:00
6:20 AM,3.2,1.4,92,30.06,6.2,North,8.1,-,N/A,,Scattered Clouds,360,2013-01-18 04:20:00
6:50 AM,5.0,3.2,92,30.06,6.2,North,5.8,-,N/A,,Scattered Clouds,350,2013-01-18 04:50:00
7:20 AM,5.0,3.2,92,30.06,6.2,NNW,6.9,-,N/A,,Mostly Cloudy,340,2013-01-18 05:20:00
7:50 AM,5.0,3.2,92,30.06,6.2,North,8.1,-,N/A,,Mostly Cloudy,360,2013-01-18 05:50:00
8:00 AM,6,4,86,30.08,6,North,8.9,,,,Clear,350,2013-01-18 06:00:00
8:20 AM,5.0,3.2,92,30.06,6.2,North,9.2,-,N/A,,Mostly Cloudy,10,2013-01-18 06:20:00
8:50 AM,5.0,1.4,85,30.06,6.2,North,9.2,-,N/A,,Scattered Clouds,360,2013-01-18 06:50:00
9:20 AM,3.2,1.4,92,30.06,6.2,North,9.2,-,N/A,,Scattered Clouds,360,2013-01-18 07:20:00
9:50 AM,3.2,1.4,92,30.06,6.2,North,10.4,-,N/A,,Scattered Clouds,360,2013-01-18 07:50:00
10:20 AM,6.8,3.2,85,30.04,6.2,NNE,11.5,-,N/A,,Scattered Clouds,20,2013-01-18 08:20:00
10:50 AM,8.6,5.0,85,30.04,5.0,NNE,9.2,-,N/A,Snow,Light Snow,30,2013-01-18 08:50:00
11:20 AM,8.6,6.8,92,30.04,5.6,NE,10.4,-,N/A,Snow,Light Snow,40,2013-01-18 09:20:00
11:50 AM,10.4,6.8,85,30.04,4.3,NE,10.4,-,N/A,Snow,Light Snow,40,2013-01-18 09:50:00
12:20 PM,10.4,6.8,85,30.04,5.0,NNE,10.4,-,N/A,Snow,Light Snow,20,2013-01-18 10:20:00
12:50 PM,10.4,6.8,85,30.01,5.6,NE,9.2,-,N/A,Snow,Light Snow,40,2013-01-18 10:50:00
1:20 PM,12.2,6.8,79,30.04,6.2,NE,8.1,-,N/A,Snow,Light Snow,40,2013-01-18 11:20:00
1:50 PM,12.2,8.6,85,30.01,6.2,NNE,8.1,-,N/A,Snow,Light Snow,20,2013-01-18 11:50:00
2:00 PM,12,9,82,30.03,6,NNE,8.9,,,Snow,Light Snow,20,2013-01-18 12:00:00
2:20 PM,12.2,8.6,85,30.01,6.2,NNE,8.1,-,N/A,Snow,Light Snow,30,2013-01-18 12:20:00
2:50 PM,12.2,10.4,92,30.01,6.2,NNE,5.8,-,N/A,Snow,Light Snow,30,2013-01-18 12:50:00
3:20 PM,12.2,10.4,92,30.01,6.2,NNE,6.9,-,N/A,,Scattered Clouds,20,2013-01-18 13:20:00
3:50 PM,12.2,10.4,92,30.01,6.2,NE,5.8,-,N/A,,Partly Cloudy,40,2013-01-18 13:50:00
4:20 PM,12.2,10.4,92,30.01,6.2,NE,6.9,-,N/A,Snow,Light Snow,40,2013-01-18 14:20:00
4:50 PM,12.2,10.4,92,30.01,5.0,NE,5.8,-,N/A,Snow,Light Snow,40,2013-01-18 14:50:00
5:20 PM,12.2,10.4,92,30.01,6.2,NE,4.6,-,N/A,Snow,Light Snow,40,2013-01-18 15:20:00
5:50 PM,14.0,10.4,86,29.98,6.2,NE,6.9,-,N/A,Snow,Light Snow,40,2013-01-18 15:50:00
6:20 PM,14.0,10.4,86,29.98,6.2,NE,5.8,-,N/A,Snow,Light Snow,50,2013-01-18 16:20:00
6:50 PM,14.0,10.4,86,29.98,6.2,ENE,9.2,-,N/A,Snow,Light Snow,60,2013-01-18 16:50:00
7:20 PM,14.0,10.4,86,29.98,6.2,ENE,8.1,-,N/A,Snow,Light Snow,60,2013-01-18 17:20:00
7:50 PM,14.0,10.4,86,29.98,6.2,NNE,8.1,-,N/A,Snow,Light Snow,30,2013-01-18 17:50:00
8:00 PM,13,10,84,29.99,6,NNE,6.7,,,Snow,Snow Grains,20,2013-01-18 18:00:00
8:20 PM,12.2,10.4,92,29.98,6.2,NE,5.8,-,N/A,Snow,Light Snow,50,2013-01-18 18:20:00
8:50 PM,12.2,10.4,92,29.98,6.2,East,3.5,-,N/A,Snow,Light Snow,80,2013-01-18 18:50:00
9:20 PM,12.2,8.6,85,29.98,6.2,East,4.6,-,N/A,Snow,Light Snow,90,2013-01-18 19:20:00
9:50 PM,8.6,6.8,92,29.98,6.2,ESE,3.5,-,N/A,Snow,Light Snow,120,2013-01-18 19:50:00
10:20 PM,6.8,5.0,92,29.98,6.2,Variable,2.3,-,N/A,Snow,Light Snow,0,2013-01-18 20:20:00
10:50 PM,6.8,5.0,92,29.98,6.2,Calm,Calm,-,N/A,Snow,Light Snow,0,2013-01-18 20:50:00
11:20 PM,5.0,3.2,92,29.98,6.2,Calm,Calm,-,N/A,Snow,Light Snow,0,2013-01-18 21:20:00
11:50 PM,5.0,3.2,92,29.98,6.2,Calm,Calm,-,N/A,,Scattered Clouds,0,2013-01-18 21:50:00